Weather History for Bryce Canyon, UT

Change the Weather History Date:

Sunday, January 19, 2014

  Actual Average Record
Temperature  
Mean Temperature 25 °F -  
Max Temperature 43 °F 38 °F 52 °F (2000)
Min Temperature 7 °F 13 °F -11 °F (1963)
Degree Days  
Heating Degree Days 40    
Moisture  
Dew Point 13 °F    
Average Humidity 68    
Maximum Humidity 84    
Minimum Humidity 42    
Precipitation  
Precipitation 0.00 in - - ()
Sea Level Pressure  
Sea Level Pressure 30.34 in    
Wind  
Wind Speed 8 mph (SW)    
Max Wind Speed 12 mph    
Max Gust Speed -    
Visibility 10 miles    
Events      
Averages and records for this station are not official NWS values.
T = Trace of Precipitation, MM = Missing Value Source: NWS Daily Summary

Daily Weather History Graph

Daily Weather History Graph

Search for Another Location

Airport:

Trip Planner

Search our weather history database for the weather conditions in past years. The results will help you decide how hot, cold, wet, or windy it might be!

Date:

Astronomy

Jan. 19, 2014 Rise Set
Actual Time 7:40 AM MST 5:38 PM MST
Civil Twilight 7:12 AM MST 6:06 PM MST
Nautical Twilight 6:40 AM MST 6:38 PM MST
Astronomical Twilight 6:09 AM MST 7:09 PM MST
Moon 9:14 PM MST (1/19) 9:17 AM MST (1/19)
Length of Visible Light 10h 53m
Length of Day
9h 57m
Waning Gibbous, 89% of the Moon is Illuminated
Jan 19
Waning Gibbous
Jan 23
Last Quarter
Jan 30
New
Feb 6
First Quarter
Feb 14
Full

Hourly Weather History & Observations

Time (MST) Temp. Windchill Dew Point Humidity Pressure Visibility Wind Dir Wind Speed Gust Speed Precip Events Conditions
12:53 AM 16.0 °F 2.9 °F 8.1 °F 71% 30.31 in 10.0 mi West 11.5 mph - N/A   Clear
1:53 AM 14.0 °F 0.5 °F 7.0 °F 74% 30.31 in 10.0 mi West 11.5 mph - N/A   Clear
2:53 AM 14.0 °F 1.2 °F 7.0 °F 74% 30.32 in 10.0 mi West 10.4 mph - N/A   Clear
3:53 AM 14.0 °F 1.2 °F 7.0 °F 74% 30.34 in 10.0 mi West 10.4 mph - N/A   Clear
4:53 AM 14.0 °F 2.0 °F 7.0 °F 74% 30.35 in 10.0 mi West 9.2 mph - N/A   Clear
5:53 AM 12.9 °F -0.2 °F 7.0 °F 77% 30.43 in 10.0 mi West 10.4 mph - N/A   Clear
6:53 AM 7.0 °F 0.1 °F 3.0 °F 84% 30.47 in 10.0 mi WSW 3.5 mph - N/A   Clear
7:53 AM 10.0 °F -0.9 °F 5.0 °F 80% 30.50 in 10.0 mi WSW 6.9 mph - N/A   Clear
8:53 AM 16.0 °F 7.4 °F 8.1 °F 71% 30.43 in 10.0 mi West 5.8 mph - N/A   Clear
9:53 AM 21.0 °F - 9.0 °F 60% 30.43 in 10.0 mi Calm Calm - N/A   Clear
10:53 AM 25.0 °F - 16.0 °F 69% 30.39 in 10.0 mi Calm Calm - N/A   Clear
11:53 AM 32.0 °F 28.7 °F 21.9 °F 66% 30.34 in 10.0 mi SSW 3.5 mph - N/A   Clear
12:53 PM 39.9 °F 34.5 °F 24.1 °F 53% 30.26 in 10.0 mi SE 8.1 mph - N/A   Clear
1:53 PM 42.1 °F 37.1 °F 23.0 °F 47% 30.24 in 10.0 mi SSE 8.1 mph - N/A   Clear
2:53 PM 43.0 °F 38.8 °F 21.0 °F 42% 30.22 in 10.0 mi SE 6.9 mph - N/A   Clear
3:53 PM 39.0 °F 34.0 °F 25.0 °F 57% 30.25 in 10.0 mi SSE 6.9 mph - N/A   Clear
4:53 PM 37.9 °F 33.5 °F 21.0 °F 51% 30.25 in 10.0 mi SSE 5.8 mph - N/A   Clear
5:53 PM 32.0 °F 27.5 °F 18.0 °F 56% 30.29 in 10.0 mi SSW 4.6 mph - N/A   Clear
6:53 PM 21.0 °F 13.4 °F 15.1 °F 78% 30.40 in 10.0 mi SW 5.8 mph - N/A   Clear
7:53 PM 18.0 °F 11.1 °F 12.9 °F 81% 30.40 in 10.0 mi SSW 4.6 mph - N/A   Clear
8:53 PM 19.9 °F 12.1 °F 14.0 °F 78% 30.36 in 10.0 mi West 5.8 mph - N/A   Clear
9:53 PM 17.1 °F 6.6 °F 12.0 °F 81% 30.35 in 10.0 mi West 8.1 mph - N/A   Clear
10:53 PM 18.0 °F 8.7 °F 10.9 °F 74% 30.32 in 10.0 mi West 6.9 mph - N/A   Clear
11:53 PM 19.0 °F 7.5 °F 10.9 °F 71% 30.28 in 10.0 mi West 10.4 mph - N/A   Clear